{"data":{"norad_id":43082,"intl_designator":"2017-085B","name":"YAOGAN-30 04B","alt_names":[],"object_type":"PAYLOAD","status":"ACTIVE","operator":null,"country":"PRC","launch_date":"2017-12-25","launch_site_code":"XICLF","launch_vehicle":null,"mission":null,"orbit_class":"UNKNOWN","rcs_meters":null,"size_class":null,"mass_kg":null,"dimensions":null,"purposes":[],"wikipedia_slug":null,"has_3d_model":false,"image_url":null,"decayed_at":null,"tle_current":{"epoch":"2026-09-20T04:08:02.151168Z","epoch_age_seconds":78378,"freshness":"FRESH","line1":"1 43082U 17085B   26263.17224712  .00001597  00000+0  11840-3 0  9991","line2":"2 43082  34.9951 291.0436 0004222  96.7992 263.3197 15.03025037476999","mean_motion":15.03025037,"eccentricity":0.0004222,"inclination_deg":34.9951,"raan_deg":291.0436,"arg_perigee_deg":96.7992,"mean_anomaly_deg":263.3197,"bstar":0.0001184,"rev_number":47699,"period_min":95.806787282413,"perigee_km":554.64642648383,"apogee_km":560.50294142976,"semimajor_km":6935.7116839568,"source":"CELESTRAK","updated_at":"2026-09-20T09:00:14.300590Z"}}}